HKE489 VHHH-WMKP

Flight info

Callsign HKE489
Flight time 3h 25m
Altitude 32000
Route PECAN V12 EPDOS L642 EPKAL/K0863F320 L642 CN M765 BITOD/N0463F320 M765 VKB W546 BETNU BETNU1F
Aircraft A321/M-SDE3FGHIRWY/LB1

Departure

Time 2026-05-08 12:24
Airport Hong Kong International Airport (VHHH)

Arrival

Time 2026-05-08 15:49
Airport Penang International Airport (WMKP)
Time Latitude Longitude Altitude Speed Heading
2026-05-08 10:55 22.30828 113.91928 37 ft 0 kts 251°
2026-05-08 11:10 22.30828 113.91929 37 ft 0 kts 251°
2026-05-08 12:01 22.30828 113.91930 37 ft 0 kts 251°
2026-05-08 12:12 22.30831 113.91938 37 ft 4 kts 251°
2026-05-08 12:12 22.30840 113.91965 34 ft 4 kts 251°
2026-05-08 12:12 22.30847 113.91988 35 ft 4 kts 246°
2026-05-08 12:12 22.30861 113.92007 32 ft 4 kts 192°
2026-05-08 12:13 22.30885 113.92006 37 ft 3 kts 161°
2026-05-08 12:13 22.30888 113.92004 37 ft 1 kts 161°
2026-05-08 12:16 22.30888 113.92005 37 ft 1 kts 161°
2026-05-08 12:17 22.30873 113.92010 36 ft 4 kts 161°
2026-05-08 12:17 22.30839 113.92023 37 ft 7 kts 161°
2026-05-08 12:17 22.30793 113.92044 37 ft 7 kts 144°
2026-05-08 12:17 22.30783 113.92093 37 ft 7 kts 73°
2026-05-08 12:18 22.30767 113.92140 37 ft 8 kts 146°
2026-05-08 12:18 22.30710 113.92164 37 ft 10 kts 161°
2026-05-08 12:18 22.30644 113.92188 37 ft 10 kts 161°
2026-05-08 12:18 22.30597 113.92231 37 ft 9 kts 106°
2026-05-08 12:19 22.30612 113.92296 36 ft 10 kts 70°
2026-05-08 12:19 22.30638 113.92377 37 ft 13 kts 71°
2026-05-08 12:19 22.30672 113.92482 37 ft 16 kts 71°
2026-05-08 12:19 22.30708 113.92594 37 ft 16 kts 71°
2026-05-08 12:20 22.30745 113.92708 36 ft 16 kts 70°
2026-05-08 12:20 22.30783 113.92824 36 ft 16 kts 71°
2026-05-08 12:20 22.30821 113.92941 36 ft 17 kts 70°
2026-05-08 12:20 22.30854 113.93041 36 ft 10 kts 70°
2026-05-08 12:21 22.30877 113.93115 36 ft 11 kts 71°
2026-05-08 12:21 22.30893 113.93189 37 ft 9 kts 100°
2026-05-08 12:21 22.30854 113.93224 37 ft 0 kts 163°
2026-05-08 12:22 22.30848 113.93226 36 ft 2 kts 163°
2026-05-08 12:22 22.30823 113.93235 36 ft 5 kts 162°
2026-05-08 12:22 22.30776 113.93252 35 ft 8 kts 165°
2026-05-08 12:22 22.30728 113.93221 35 ft 9 kts 243°
2026-05-08 12:23 22.30701 113.93140 35 ft 17 kts 251°
2026-05-08 12:23 22.30624 113.92899 35 ft 63 kts 250°
2026-05-08 12:23 22.30409 113.92237 40 ft 122 kts 251°
2026-05-08 12:23 22.30075 113.91202 39 ft 168 kts 251°
2026-05-08 12:24 22.29672 113.89945 418 ft 178 kts 251°
2026-05-08 12:24 22.29257 113.88673 991 ft 181 kts 251°
2026-05-08 12:24 22.28834 113.87379 1553 ft 184 kts 252°
2026-05-08 12:24 22.28314 113.86075 1799 ft 201 kts 238°
2026-05-08 12:25 22.27430 113.84837 1988 ft 214 kts 231°
2026-05-08 12:25 22.26485 113.83574 2279 ft 222 kts 231°
2026-05-08 12:25 22.25441 113.82351 2739 ft 222 kts 220°
2026-05-08 12:25 22.24108 113.81495 3097 ft 228 kts 199°
2026-05-08 12:26 22.22473 113.81283 3149 ft 251 kts 175°
2026-05-08 12:26 22.20698 113.81459 3555 ft 259 kts 167°
2026-05-08 12:26 22.19059 113.82160 4311 ft 252 kts 146°
2026-05-08 12:26 22.17778 113.83426 4928 ft 251 kts 131°
2026-05-08 12:27 22.16622 113.84856 5485 ft 253 kts 126°
2026-05-08 12:27 22.15755 113.86505 6040 ft 255 kts 111°
2026-05-08 12:27 22.15113 113.88283 6559 ft 258 kts 111°
2026-05-08 12:27 22.14442 113.90082 7034 ft 262 kts 112°
2026-05-08 12:28 22.13800 113.91929 7536 ft 265 kts 103°
2026-05-08 12:28 22.13521 113.93942 7768 ft 281 kts 96°
2026-05-08 12:28 22.13321 113.96072 8145 ft 289 kts 95°
2026-05-08 12:28 22.13130 113.98245 8652 ft 293 kts 95°
2026-05-08 12:29 22.12941 114.00445 9173 ft 296 kts 95°
2026-05-08 12:29 22.12750 114.02667 9695 ft 299 kts 95°
2026-05-08 12:29 22.12555 114.04912 10158 ft 304 kts 95°
2026-05-08 12:29 22.12308 114.07237 10270 ft 321 kts 98°
2026-05-08 12:30 22.11943 114.09643 10401 ft 338 kts 100°
2026-05-08 12:30 22.11499 114.12191 10518 ft 354 kts 101°
2026-05-08 12:30 22.10996 114.14847 10650 ft 368 kts 105°
2026-05-08 12:30 22.09973 114.17386 10978 ft 373 kts 123°
2026-05-08 12:31 22.08270 114.19497 11383 ft 376 kts 141°
2026-05-08 12:31 22.06040 114.20974 11793 ft 378 kts 159°
2026-05-08 12:31 22.03496 114.21638 12226 ft 378 kts 177°
2026-05-08 12:31 22.00857 114.21639 12672 ft 380 kts 182°
2026-05-08 12:32 21.98239 114.21578 13122 ft 383 kts 182°
2026-05-08 12:32 21.95572 114.21512 13568 ft 385 kts 183°
2026-05-08 12:32 21.92882 114.21446 13906 ft 388 kts 183°
2026-05-08 12:32 21.90185 114.21373 13981 ft 387 kts 185°
2026-05-08 12:33 21.87532 114.20944 13993 ft 385 kts 196°
2026-05-08 12:33 21.85017 114.19961 14248 ft 385 kts 207°
2026-05-08 12:33 21.82625 114.18652 14665 ft 386 kts 208°
2026-05-08 12:33 21.80218 114.17341 15078 ft 388 kts 208°
2026-05-08 12:34 21.77799 114.16030 15480 ft 390 kts 208°
2026-05-08 12:34 21.75369 114.14718 15885 ft 392 kts 208°
2026-05-08 12:34 21.73195 114.13543 16247 ft 394 kts 208°
2026-05-08 12:34 21.71012 114.12360 16598 ft 395 kts 208°
2026-05-08 12:35 21.68551 114.11022 17003 ft 397 kts 208°
2026-05-08 12:35 21.66080 114.09678 17394 ft 400 kts 207°
2026-05-08 12:35 21.63486 114.08577 17781 ft 404 kts 198°
2026-05-08 12:35 21.60746 114.07849 18165 ft 406 kts 195°
2026-05-08 12:36 21.57990 114.07142 18510 ft 408 kts 195°
2026-05-08 12:36 21.55217 114.06428 18824 ft 411 kts 195°
2026-05-08 12:36 21.52427 114.05708 19140 ft 414 kts 195°
2026-05-08 12:36 21.49655 114.04992 19441 ft 417 kts 195°
2026-05-08 12:37 21.46829 114.04261 19737 ft 420 kts 195°
2026-05-08 12:37 21.43967 114.03582 20032 ft 423 kts 190°
2026-05-08 12:37 21.41020 114.03298 20301 ft 427 kts 185°
2026-05-08 12:37 21.38042 114.03101 20581 ft 430 kts 185°
2026-05-08 12:38 21.35046 114.02902 20853 ft 433 kts 185°
2026-05-08 12:38 21.32029 114.02698 21126 ft 435 kts 185°
2026-05-08 12:38 21.28997 114.02492 21392 ft 438 kts 185°
2026-05-08 12:38 21.25994 114.02289 21657 ft 440 kts 185°
2026-05-08 12:39 21.22927 114.02082 21917 ft 442 kts 185°
2026-05-08 12:39 21.19850 114.01877 22186 ft 444 kts 185°
2026-05-08 12:39 21.16759 114.01675 22457 ft 446 kts 185°
2026-05-08 12:39 21.13652 114.01469 22729 ft 448 kts 185°
2026-05-08 12:40 21.10530 114.01261 22985 ft 450 kts 185°
2026-05-08 12:40 21.07400 114.01051 23252 ft 452 kts 185°
2026-05-08 12:40 21.04258 114.00839 23507 ft 453 kts 185°
2026-05-08 12:40 21.01147 114.00630 23738 ft 455 kts 185°
2026-05-08 12:41 20.97984 114.00421 23962 ft 456 kts 185°
2026-05-08 12:41 20.94814 114.00204 24200 ft 456 kts 186°
2026-05-08 12:41 20.91685 113.99663 24432 ft 456 kts 194°
2026-05-08 12:41 20.88581 113.98937 24663 ft 457 kts 194°
2026-05-08 12:42 20.85474 113.98212 24893 ft 458 kts 193°
2026-05-08 12:42 20.82360 113.97485 25121 ft 459 kts 194°
2026-05-08 12:42 20.79236 113.96752 25344 ft 460 kts 194°
2026-05-08 12:42 20.76147 113.96031 25560 ft 461 kts 194°
2026-05-08 12:43 20.73007 113.95295 25780 ft 462 kts 194°
2026-05-08 12:43 20.69860 113.94557 25990 ft 464 kts 193°
2026-05-08 12:43 20.66703 113.93819 26191 ft 465 kts 193°
2026-05-08 12:43 20.63540 113.93081 26393 ft 466 kts 193°
2026-05-08 12:44 20.60366 113.92344 26598 ft 468 kts 193°
2026-05-08 12:44 20.57177 113.91609 26790 ft 469 kts 193°
2026-05-08 12:44 20.53986 113.90874 26981 ft 470 kts 193°
2026-05-08 12:44 20.50782 113.90133 27157 ft 472 kts 193°
2026-05-08 12:45 20.47617 113.89399 27358 ft 473 kts 193°
2026-05-08 12:45 20.44395 113.88653 27543 ft 474 kts 193°
2026-05-08 12:45 20.41167 113.87906 27733 ft 476 kts 193°
2026-05-08 12:45 20.37926 113.87157 27923 ft 477 kts 193°
2026-05-08 12:46 20.34678 113.86409 28112 ft 479 kts 193°
2026-05-08 12:46 20.31421 113.85656 28303 ft 480 kts 193°
2026-05-08 12:46 20.28150 113.84899 28487 ft 481 kts 193°
2026-05-08 12:46 20.24881 113.84142 28759 ft 481 kts 193°
2026-05-08 12:47 20.21615 113.83384 29032 ft 480 kts 193°
2026-05-08 12:47 20.18398 113.82636 29275 ft 480 kts 193°
2026-05-08 12:47 20.15138 113.81882 29531 ft 480 kts 193°
2026-05-08 12:47 20.11877 113.81131 29784 ft 479 kts 193°
2026-05-08 12:48 20.08619 113.80382 30025 ft 479 kts 193°
2026-05-08 12:48 20.05361 113.79632 30240 ft 479 kts 193°
2026-05-08 12:48 20.02106 113.78883 30450 ft 479 kts 193°
2026-05-08 12:48 19.98851 113.78134 30647 ft 478 kts 193°
2026-05-08 12:49 19.95601 113.77385 30855 ft 478 kts 193°
2026-05-08 12:49 19.92395 113.76645 31058 ft 478 kts 193°
2026-05-08 12:49 19.89148 113.75894 31257 ft 477 kts 193°
2026-05-08 12:49 19.85903 113.75142 31475 ft 477 kts 193°
2026-05-08 12:50 19.82665 113.74393 31681 ft 476 kts 193°
2026-05-08 12:50 19.79423 113.73649 31885 ft 476 kts 193°
2026-05-08 12:50 19.72965 113.72174 31982 ft 473 kts 193°
2026-05-08 12:51 19.63375 113.69985 31978 ft 471 kts 194°
2026-05-08 12:52 19.56972 113.68507 31974 ft 471 kts 193°
2026-05-08 12:52 19.47367 113.66307 31972 ft 471 kts 193°
2026-05-08 12:53 19.40960 113.64843 31972 ft 471 kts 193°
2026-05-08 12:53 19.34597 113.63386 31978 ft 471 kts 193°
2026-05-08 12:54 19.28188 113.61920 31980 ft 471 kts 193°
2026-05-08 12:54 19.21778 113.60458 31981 ft 471 kts 193°
2026-05-08 12:55 19.15365 113.58999 31978 ft 472 kts 193°
2026-05-08 12:55 19.08988 113.57550 31980 ft 472 kts 193°
2026-05-08 12:56 19.02574 113.56090 31981 ft 472 kts 193°
2026-05-08 12:56 18.96127 113.54772 31978 ft 472 kts 189°
2026-05-08 12:57 18.89615 113.53869 31978 ft 472 kts 187°
2026-05-08 12:57 18.83139 113.53071 31978 ft 472 kts 187°
2026-05-08 12:58 18.76627 113.52187 31978 ft 472 kts 188°
2026-05-08 12:58 18.70131 113.51245 31974 ft 471 kts 188°
2026-05-08 12:59 18.64727 113.50460 31974 ft 471 kts 188°
2026-05-08 12:59 18.58259 113.49361 31970 ft 470 kts 196°
2026-05-08 13:00 18.51460 113.45939 31964 ft 467 kts 217°
2026-05-08 13:00 18.47109 113.42563 31960 ft 468 kts 217°
2026-05-08 13:01 18.41863 113.38508 31954 ft 468 kts 217°
2026-05-08 13:01 18.36600 113.34459 31955 ft 469 kts 217°
2026-05-08 13:02 18.30478 113.29749 31960 ft 469 kts 217°
2026-05-08 13:02 18.26060 113.26353 31963 ft 470 kts 217°
2026-05-08 13:03 18.20816 113.22327 31968 ft 470 kts 217°
2026-05-08 13:03 18.15539 113.18269 31967 ft 470 kts 217°
2026-05-08 13:04 18.10261 113.14214 31970 ft 470 kts 217°
2026-05-08 13:04 18.04976 113.10161 31969 ft 470 kts 217°
2026-05-08 13:05 17.99730 113.06139 31972 ft 470 kts 216°
2026-05-08 13:05 17.94443 113.02090 31969 ft 470 kts 216°
2026-05-08 13:06 17.89161 112.98042 31967 ft 470 kts 216°
2026-05-08 13:06 17.83884 112.93992 31964 ft 470 kts 217°
2026-05-08 13:07 17.78681 112.89911 31963 ft 470 kts 217°
2026-05-08 13:07 17.73465 112.85770 31961 ft 470 kts 217°
2026-05-08 13:08 17.68239 112.81648 31959 ft 470 kts 217°
2026-05-08 13:08 17.62996 112.77541 31956 ft 470 kts 217°
2026-05-08 13:09 17.57756 112.73441 31955 ft 470 kts 217°
2026-05-08 13:09 17.52553 112.69364 31954 ft 470 kts 217°
2026-05-08 13:10 17.47307 112.65261 31955 ft 471 kts 217°
2026-05-08 13:10 17.42060 112.61158 31950 ft 471 kts 217°
2026-05-08 13:11 17.36815 112.57054 31953 ft 471 kts 217°
2026-05-08 13:11 17.31609 112.52969 31950 ft 471 kts 217°
2026-05-08 13:12 17.26355 112.48858 31949 ft 472 kts 216°
2026-05-08 13:12 17.21085 112.44755 31953 ft 472 kts 216°
2026-05-08 13:13 17.15814 112.40648 31955 ft 473 kts 216°
2026-05-08 13:13 17.10575 112.36566 31956 ft 473 kts 216°
2026-05-08 13:14 17.05295 112.32448 31959 ft 473 kts 216°
2026-05-08 13:14 17.00013 112.28335 31959 ft 474 kts 216°
2026-05-08 13:15 16.94698 112.24261 31958 ft 474 kts 215°
2026-05-08 13:15 16.89352 112.20229 31953 ft 474 kts 215°
2026-05-08 13:16 16.84047 112.16228 31955 ft 474 kts 215°
2026-05-08 13:16 16.78704 112.12194 31953 ft 474 kts 216°
2026-05-08 13:17 16.73367 112.08148 31949 ft 474 kts 215°
2026-05-08 13:17 16.68036 112.04107 31947 ft 474 kts 215°
2026-05-08 13:18 16.62724 112.00090 31948 ft 475 kts 215°
2026-05-08 13:18 16.57373 111.96049 31950 ft 475 kts 215°
2026-05-08 13:19 16.52017 111.92011 31953 ft 475 kts 215°
2026-05-08 13:19 16.46660 111.87980 31948 ft 475 kts 215°
2026-05-08 13:20 16.41303 111.83942 31954 ft 475 kts 215°
2026-05-08 13:20 16.35979 111.79935 31955 ft 476 kts 215°
2026-05-08 13:21 16.30613 111.75898 31952 ft 476 kts 215°
2026-05-08 13:21 16.25261 111.71856 31951 ft 475 kts 215°
2026-05-08 13:22 16.19899 111.67829 31951 ft 475 kts 215°
2026-05-08 13:22 16.14572 111.63835 31949 ft 476 kts 215°
2026-05-08 13:23 16.09201 111.59808 31948 ft 476 kts 215°
2026-05-08 13:23 16.03834 111.55773 31950 ft 476 kts 215°
2026-05-08 13:24 15.98463 111.51747 31952 ft 476 kts 215°
2026-05-08 13:24 15.93087 111.47717 31952 ft 476 kts 215°
2026-05-08 13:25 15.87738 111.43723 31953 ft 477 kts 215°
2026-05-08 13:25 15.82354 111.39697 31949 ft 477 kts 215°
2026-05-08 13:26 15.76968 111.35662 31950 ft 477 kts 215°
2026-05-08 13:26 15.71579 111.31640 31950 ft 477 kts 215°
2026-05-08 13:27 15.66220 111.27646 31950 ft 477 kts 215°
2026-05-08 13:27 15.60826 111.23620 31950 ft 478 kts 215°
2026-05-08 13:28 15.55433 111.19589 31949 ft 478 kts 215°
2026-05-08 13:28 15.50040 111.15567 31946 ft 478 kts 215°
2026-05-08 13:29 15.44674 111.11576 31946 ft 478 kts 215°
2026-05-08 13:29 15.39273 111.07558 31944 ft 478 kts 215°
2026-05-08 13:30 15.34419 111.03948 31945 ft 478 kts 216°
2026-05-08 13:30 15.29051 110.99885 31945 ft 478 kts 216°
2026-05-08 13:31 15.23709 110.95792 31944 ft 478 kts 216°
2026-05-08 13:31 15.18398 110.91735 31944 ft 477 kts 216°
2026-05-08 13:32 15.13046 110.87671 31938 ft 477 kts 216°
2026-05-08 13:32 15.07680 110.83617 31938 ft 477 kts 216°
2026-05-08 13:33 15.02325 110.79558 31937 ft 477 kts 216°
2026-05-08 13:33 14.97010 110.75532 31937 ft 477 kts 216°
2026-05-08 13:34 14.91644 110.71473 31933 ft 478 kts 216°
2026-05-08 13:34 14.86281 110.67418 31938 ft 478 kts 216°
2026-05-08 13:35 14.80915 110.63361 31938 ft 478 kts 216°
2026-05-08 13:35 14.75544 110.59304 31939 ft 478 kts 216°
2026-05-08 13:36 14.70208 110.55281 31942 ft 478 kts 216°
2026-05-08 13:36 14.64836 110.51224 31946 ft 479 kts 216°
2026-05-08 13:37 14.59462 110.47165 31945 ft 478 kts 216°
2026-05-08 13:37 14.54086 110.43113 31946 ft 478 kts 216°
2026-05-08 13:38 14.48747 110.39096 31949 ft 478 kts 216°
2026-05-08 13:38 14.43371 110.35057 31948 ft 478 kts 216°
2026-05-08 13:39 14.38002 110.31015 31945 ft 478 kts 216°
2026-05-08 13:39 14.32633 110.26976 31945 ft 478 kts 216°
2026-05-08 13:40 14.27300 110.22964 31949 ft 478 kts 216°
2026-05-08 13:40 14.21934 110.18928 31948 ft 477 kts 216°
2026-05-08 13:41 14.16559 110.14901 31946 ft 477 kts 216°
2026-05-08 13:41 14.11185 110.10879 31945 ft 477 kts 216°
2026-05-08 13:42 14.05852 110.06883 31944 ft 477 kts 216°
2026-05-08 13:42 14.00487 110.02860 31941 ft 477 kts 216°
2026-05-08 13:43 13.95094 109.98871 31943 ft 477 kts 214°
2026-05-08 13:43 13.89497 109.95192 31941 ft 477 kts 211°
2026-05-08 13:44 13.83805 109.91675 31942 ft 477 kts 211°
2026-05-08 13:44 13.78181 109.88135 31939 ft 477 kts 212°
2026-05-08 13:45 13.72548 109.84504 31938 ft 477 kts 212°
2026-05-08 13:45 13.66923 109.80868 31935 ft 478 kts 212°
2026-05-08 13:46 13.61288 109.77245 31939 ft 478 kts 212°
2026-05-08 13:46 13.55684 109.73656 31938 ft 478 kts 212°
2026-05-08 13:47 13.50042 109.70043 31934 ft 478 kts 212°
2026-05-08 13:47 13.44395 109.66426 31933 ft 478 kts 212°
2026-05-08 13:48 13.38750 109.62812 31932 ft 478 kts 212°
2026-05-08 13:48 13.33143 109.59220 31933 ft 478 kts 212°
2026-05-08 13:49 13.27494 109.55600 31931 ft 479 kts 212°
2026-05-08 13:49 13.21841 109.51987 31936 ft 479 kts 212°
2026-05-08 13:50 13.16185 109.48380 31938 ft 479 kts 212°
2026-05-08 13:50 13.10584 109.44790 31936 ft 479 kts 212°
2026-05-08 13:51 13.04923 109.41170 31938 ft 479 kts 212°
2026-05-08 13:51 12.99272 109.37563 31940 ft 479 kts 212°
2026-05-08 13:52 12.93612 109.33952 31940 ft 479 kts 212°
2026-05-08 13:52 12.87996 109.30366 31941 ft 479 kts 212°
2026-05-08 13:53 12.82335 109.26761 31943 ft 479 kts 212°
2026-05-08 13:53 12.76671 109.23154 31940 ft 479 kts 212°
2026-05-08 13:54 12.71000 109.19553 31943 ft 480 kts 212°
2026-05-08 13:54 12.65328 109.15955 31948 ft 480 kts 212°
2026-05-08 13:55 12.59689 109.12378 31947 ft 480 kts 212°
2026-05-08 13:56 12.51178 109.06973 31952 ft 480 kts 212°
2026-05-08 13:56 12.45499 109.03373 31958 ft 480 kts 212°
2026-05-08 13:57 12.39855 108.99792 31962 ft 480 kts 212°
2026-05-08 13:57 12.34177 108.96187 31966 ft 480 kts 212°
2026-05-08 13:58 12.28495 108.92592 31971 ft 481 kts 212°
2026-05-08 13:58 12.22810 108.88991 31977 ft 481 kts 212°
2026-05-08 13:59 12.17156 108.85417 31985 ft 481 kts 212°
2026-05-08 13:59 12.11467 108.81822 31987 ft 481 kts 212°
2026-05-08 14:00 12.05774 108.78229 31988 ft 481 kts 212°
2026-05-08 14:00 12.00081 108.74632 31993 ft 481 kts 212°
2026-05-08 14:01 11.94391 108.71032 31993 ft 481 kts 212°
2026-05-08 14:01 11.88730 108.67464 31988 ft 481 kts 212°
2026-05-08 14:02 11.83032 108.63869 31981 ft 481 kts 212°
2026-05-08 14:02 11.77332 108.60275 31981 ft 482 kts 212°
2026-05-08 14:03 11.71633 108.56680 31980 ft 482 kts 212°
2026-05-08 14:03 11.65965 108.53114 31971 ft 482 kts 212°
2026-05-08 14:04 11.60262 108.49526 31968 ft 482 kts 212°
2026-05-08 14:04 11.54558 108.45936 31960 ft 482 kts 212°
2026-05-08 14:05 11.48848 108.42350 31950 ft 482 kts 212°
2026-05-08 14:05 11.43180 108.38787 31948 ft 482 kts 212°
2026-05-08 14:06 11.37469 108.35201 31943 ft 482 kts 212°
2026-05-08 14:06 11.31763 108.31618 31938 ft 482 kts 212°
2026-05-08 14:07 11.26057 108.28033 31935 ft 482 kts 212°
2026-05-08 14:07 11.20385 108.24481 31932 ft 482 kts 212°
2026-05-08 14:08 11.14679 108.20904 31926 ft 482 kts 212°
2026-05-08 14:08 11.08974 108.17325 31922 ft 482 kts 212°
2026-05-08 14:09 11.03270 108.13752 31918 ft 482 kts 212°
2026-05-08 14:09 10.97600 108.10202 31915 ft 482 kts 212°
2026-05-08 14:10 10.91894 108.06627 31915 ft 482 kts 212°
2026-05-08 14:10 10.86257 108.02938 31911 ft 482 kts 213°
2026-05-08 14:11 10.80674 107.99165 31907 ft 482 kts 214°
2026-05-08 14:11 10.75070 107.95405 31905 ft 483 kts 213°
2026-05-08 14:12 10.69477 107.91696 31902 ft 483 kts 213°
2026-05-08 14:12 10.63839 107.87965 31904 ft 484 kts 213°
2026-05-08 14:13 10.58199 107.84229 31904 ft 484 kts 213°
2026-05-08 14:13 10.52601 107.80513 31905 ft 484 kts 213°
2026-05-08 14:14 10.46959 107.76777 31900 ft 484 kts 213°
2026-05-08 14:14 10.41316 107.73043 31897 ft 484 kts 213°
2026-05-08 14:15 10.35666 107.69320 31895 ft 484 kts 213°
2026-05-08 14:15 10.30009 107.65598 31900 ft 485 kts 213°
2026-05-08 14:16 10.24390 107.61901 31904 ft 484 kts 213°
2026-05-08 14:16 10.18739 107.58183 31907 ft 484 kts 213°
2026-05-08 14:17 10.13089 107.54468 31906 ft 484 kts 213°
2026-05-08 14:17 10.07446 107.50747 31910 ft 483 kts 213°
2026-05-08 14:18 10.01855 107.47047 31907 ft 483 kts 213°
2026-05-08 14:18 9.96226 107.43330 31906 ft 483 kts 213°
2026-05-08 14:19 9.90595 107.39619 31908 ft 483 kts 213°
2026-05-08 14:19 9.84963 107.35916 31906 ft 482 kts 213°
2026-05-08 14:20 9.79337 107.32207 31907 ft 482 kts 213°
2026-05-08 14:20 9.73743 107.28531 31906 ft 482 kts 213°
2026-05-08 14:21 9.68112 107.24830 31906 ft 482 kts 213°
2026-05-08 14:21 9.62486 107.21126 31910 ft 482 kts 213°
2026-05-08 14:22 9.56860 107.17424 31908 ft 482 kts 213°
2026-05-08 14:22 9.51233 107.13724 31908 ft 482 kts 213°
2026-05-08 14:23 9.45637 107.10055 31912 ft 482 kts 213°
2026-05-08 14:23 9.40013 107.06352 31911 ft 482 kts 213°
2026-05-08 14:24 9.34394 107.02649 31912 ft 482 kts 213°
2026-05-08 14:24 9.28767 106.98957 31910 ft 482 kts 213°
2026-05-08 14:25 9.23178 106.95301 31911 ft 481 kts 213°
2026-05-08 14:25 9.17557 106.91620 31914 ft 481 kts 213°
2026-05-08 14:26 9.12225 106.88128 31909 ft 481 kts 213°
2026-05-08 14:26 9.06611 106.84443 31910 ft 481 kts 213°
2026-05-08 14:27 9.01033 106.80789 31908 ft 481 kts 213°
2026-05-08 14:27 8.95411 106.77121 31909 ft 481 kts 213°
2026-05-08 14:28 8.89798 106.73457 31904 ft 480 kts 213°
2026-05-08 14:28 8.84182 106.69791 31904 ft 480 kts 213°
2026-05-08 14:29 8.78857 106.66304 31906 ft 480 kts 213°
2026-05-08 14:29 8.73654 106.62191 31905 ft 479 kts 228°
2026-05-08 14:30 8.69834 106.56719 31903 ft 477 kts 240°
2026-05-08 14:30 8.66462 106.50948 31901 ft 477 kts 240°
2026-05-08 14:31 8.63403 106.45748 31900 ft 477 kts 240°
2026-05-08 14:31 8.60212 106.40309 31903 ft 477 kts 240°
2026-05-08 14:32 8.55306 106.31909 31906 ft 477 kts 240°
2026-05-08 14:32 8.51932 106.26134 31905 ft 477 kts 240°
2026-05-08 14:33 8.48564 106.20353 31907 ft 477 kts 240°
2026-05-08 14:33 8.45205 106.14618 31906 ft 477 kts 240°
2026-05-08 14:34 8.41821 106.08849 31904 ft 478 kts 240°
2026-05-08 14:34 8.38430 106.03075 31906 ft 478 kts 240°
2026-05-08 14:35 8.35207 105.97589 31910 ft 478 kts 240°
2026-05-08 14:35 8.31980 105.92076 31915 ft 478 kts 240°
2026-05-08 14:36 8.28620 105.86346 31914 ft 478 kts 240°
2026-05-08 14:36 8.25235 105.80578 31915 ft 477 kts 239°
2026-05-08 14:37 8.21852 105.74818 31914 ft 477 kts 239°
2026-05-08 14:37 8.18469 105.69057 31918 ft 477 kts 239°
2026-05-08 14:38 8.15081 105.63299 31926 ft 477 kts 239°
2026-05-08 14:38 8.11718 105.57590 31922 ft 476 kts 239°
2026-05-08 14:39 8.08341 105.51843 31925 ft 476 kts 239°
2026-05-08 14:39 8.04965 105.46108 31932 ft 475 kts 239°
2026-05-08 14:40 8.01593 105.40384 31917 ft 474 kts 238°
2026-05-08 14:40 7.98240 105.34708 31919 ft 474 kts 238°
2026-05-08 14:41 7.94873 105.28997 31919 ft 473 kts 238°
2026-05-08 14:41 7.91515 105.23286 31919 ft 473 kts 238°
2026-05-08 14:42 7.88160 105.17572 31922 ft 473 kts 238°
2026-05-08 14:42 7.84826 105.11900 31923 ft 473 kts 238°
2026-05-08 14:43 7.81466 105.06202 31923 ft 473 kts 238°
2026-05-08 14:43 7.78107 105.00507 31924 ft 472 kts 238°
2026-05-08 14:44 7.74755 104.94822 31923 ft 472 kts 238°
2026-05-08 14:44 7.71429 104.89175 31924 ft 471 kts 238°
2026-05-08 14:45 7.68083 104.83495 31925 ft 471 kts 238°
2026-05-08 14:45 7.64731 104.77815 31922 ft 471 kts 238°
2026-05-08 14:46 7.61373 104.72143 31923 ft 471 kts 238°
2026-05-08 14:46 7.58019 104.66468 31925 ft 471 kts 238°
2026-05-08 14:47 7.54683 104.60839 31928 ft 471 kts 238°
2026-05-08 14:47 7.51325 104.55169 31931 ft 471 kts 238°
2026-05-08 14:48 7.47972 104.49490 31930 ft 471 kts 238°
2026-05-08 14:48 7.44620 104.43814 31932 ft 471 kts 238°
2026-05-08 14:49 7.41292 104.38183 31932 ft 471 kts 238°
2026-05-08 14:49 7.37936 104.32521 31929 ft 471 kts 238°
2026-05-08 14:50 7.34579 104.26863 31934 ft 470 kts 238°
2026-05-08 14:50 7.31222 104.21211 31934 ft 470 kts 238°
2026-05-08 14:51 7.27896 104.15593 31936 ft 470 kts 238°
2026-05-08 14:51 7.24550 104.09945 31936 ft 470 kts 238°
2026-05-08 14:52 7.19485 104.01495 31933 ft 470 kts 238°
2026-05-08 14:53 7.16102 103.95870 31932 ft 470 kts 238°
2026-05-08 14:53 7.12721 103.90242 31931 ft 470 kts 238°
2026-05-08 14:54 7.09368 103.84643 31932 ft 470 kts 238°
2026-05-08 14:54 7.05998 103.79003 31933 ft 470 kts 238°
2026-05-08 14:55 7.02614 103.73367 31929 ft 471 kts 238°
2026-05-08 14:55 6.99225 103.67729 31930 ft 471 kts 238°
2026-05-08 14:56 6.95854 103.62128 31932 ft 471 kts 238°
2026-05-08 14:56 6.92466 103.56482 31931 ft 471 kts 238°
2026-05-08 14:57 6.89105 103.50815 31935 ft 472 kts 238°
2026-05-08 14:57 6.85752 103.45143 31936 ft 472 kts 238°
2026-05-08 14:58 6.82379 103.39473 31932 ft 472 kts 238°
2026-05-08 14:58 6.79002 103.33806 31931 ft 472 kts 238°
2026-05-08 14:59 6.75651 103.28167 31933 ft 473 kts 238°
2026-05-08 14:59 6.70603 103.19657 31937 ft 473 kts 238°
2026-05-08 15:00 6.67222 103.13971 31937 ft 473 kts 238°
2026-05-08 15:00 6.63842 103.08298 31942 ft 473 kts 238°
2026-05-08 15:01 6.60484 103.02665 31940 ft 473 kts 238°
2026-05-08 15:01 6.57106 102.96985 31933 ft 473 kts 238°
2026-05-08 15:02 6.53733 102.91309 31938 ft 473 kts 238°
2026-05-08 15:02 6.50351 102.85631 31945 ft 473 kts 238°
2026-05-08 15:03 6.46983 102.80000 31943 ft 473 kts 238°
2026-05-08 15:03 6.43486 102.74393 31940 ft 473 kts 237°
2026-05-08 15:04 6.39925 102.68827 31940 ft 473 kts 236°
2026-05-08 15:04 6.36381 102.63248 31941 ft 474 kts 237°
2026-05-08 15:05 6.32885 102.57690 31936 ft 474 kts 237°
2026-05-08 15:05 6.29362 102.52093 31929 ft 474 kts 237°
2026-05-08 15:06 6.25832 102.46487 31924 ft 474 kts 237°
2026-05-08 15:06 6.22304 102.40884 31917 ft 475 kts 237°
2026-05-08 15:07 6.18778 102.35276 31912 ft 475 kts 236°
2026-05-08 15:07 6.14479 102.30355 31913 ft 472 kts 218°
2026-05-08 15:08 6.09981 102.27273 31912 ft 471 kts 211°
2026-05-08 15:08 6.03530 102.23109 31916 ft 472 kts 212°
2026-05-08 15:09 5.98020 102.19521 31926 ft 472 kts 212°
2026-05-08 15:09 5.92546 102.15959 31932 ft 472 kts 212°
2026-05-08 15:10 5.87034 102.12378 31941 ft 472 kts 212°
2026-05-08 15:10 5.81513 102.08791 31947 ft 472 kts 212°
2026-05-08 15:11 5.75997 102.05206 31949 ft 472 kts 212°
2026-05-08 15:11 5.70513 102.01648 31957 ft 472 kts 212°
2026-05-08 15:12 5.65006 101.98049 31958 ft 473 kts 215°
2026-05-08 15:12 5.62516 101.95895 31956 ft 474 kts 226°
2026-05-08 15:12 5.60448 101.93318 31959 ft 475 kts 236°
2026-05-08 15:13 5.58878 101.90406 31957 ft 475 kts 247°
2026-05-08 15:13 5.57856 101.87258 31959 ft 475 kts 258°
2026-05-08 15:13 5.56660 101.80728 31960 ft 476 kts 259°
2026-05-08 15:14 5.55456 101.74244 31575 ft 473 kts 259°
2026-05-08 15:14 5.54850 101.71010 31082 ft 470 kts 259°
2026-05-08 15:14 5.54250 101.67798 30610 ft 467 kts 259°
2026-05-08 15:15 5.53656 101.64604 30144 ft 464 kts 259°
2026-05-08 15:15 5.53070 101.61432 29617 ft 461 kts 259°
2026-05-08 15:15 5.52490 101.58277 29087 ft 458 kts 259°
2026-05-08 15:15 5.51915 101.55149 28578 ft 454 kts 259°
2026-05-08 15:16 5.51343 101.52043 28077 ft 451 kts 259°
2026-05-08 15:16 5.50776 101.48964 27593 ft 448 kts 259°
2026-05-08 15:16 5.50218 101.45945 27120 ft 444 kts 259°
2026-05-08 15:16 5.49655 101.42904 26647 ft 441 kts 259°
2026-05-08 15:17 5.49096 101.39888 26191 ft 438 kts 259°
2026-05-08 15:17 5.48538 101.36889 25746 ft 435 kts 259°
2026-05-08 15:17 5.47984 101.33915 25320 ft 432 kts 259°
2026-05-08 15:17 5.47434 101.30958 24903 ft 430 kts 259°
2026-05-08 15:18 5.46890 101.28017 24498 ft 428 kts 259°
2026-05-08 15:18 5.46349 101.25090 24117 ft 425 kts 259°
2026-05-08 15:18 5.45821 101.22222 23746 ft 423 kts 259°
2026-05-08 15:18 5.45288 101.19330 23326 ft 420 kts 259°
2026-05-08 15:19 5.44758 101.16458 22885 ft 418 kts 259°
2026-05-08 15:19 5.44230 101.13598 22455 ft 415 kts 259°
2026-05-08 15:19 5.43704 101.10763 22020 ft 412 kts 259°
2026-05-08 15:19 5.43180 101.07945 21598 ft 409 kts 259°
2026-05-08 15:20 5.42660 101.05152 21177 ft 406 kts 259°
2026-05-08 15:20 5.42147 101.02380 20761 ft 403 kts 259°
2026-05-08 15:20 5.41636 100.99625 20348 ft 400 kts 259°
2026-05-08 15:20 5.41138 100.96932 19940 ft 397 kts 259°
2026-05-08 15:21 5.40633 100.94220 19520 ft 394 kts 259°
2026-05-08 15:21 5.40128 100.91528 19111 ft 391 kts 259°
2026-05-08 15:21 5.39629 100.88853 18709 ft 388 kts 259°
2026-05-08 15:21 5.39138 100.86200 18314 ft 385 kts 259°
2026-05-08 15:22 5.38649 100.83567 17877 ft 382 kts 259°
2026-05-08 15:22 5.38164 100.80956 17441 ft 379 kts 259°
2026-05-08 15:22 5.37681 100.78369 17002 ft 376 kts 259°
2026-05-08 15:22 5.37231 100.75799 16564 ft 372 kts 261°
2026-05-08 15:23 5.36877 100.73274 16137 ft 369 kts 262°
2026-05-08 15:23 5.36577 100.70727 15705 ft 366 kts 263°
2026-05-08 15:23 5.36302 100.68199 15285 ft 363 kts 263°
2026-05-08 15:23 5.36031 100.65688 14872 ft 360 kts 263°
2026-05-08 15:24 5.35755 100.63199 14471 ft 357 kts 263°
2026-05-08 15:24 5.35469 100.60737 14066 ft 355 kts 263°
2026-05-08 15:24 5.35175 100.58288 13667 ft 352 kts 263°
2026-05-08 15:24 5.34881 100.55862 13222 ft 349 kts 263°
2026-05-08 15:25 5.34590 100.53456 12934 ft 346 kts 262°
2026-05-08 15:25 5.34298 100.51055 12911 ft 348 kts 262°
2026-05-08 15:25 5.34007 100.48674 12915 ft 349 kts 262°
2026-05-08 15:25 5.33592 100.46281 12916 ft 348 kts 253°
2026-05-08 15:26 5.32671 100.44056 12742 ft 344 kts 239°
2026-05-08 15:26 5.31267 100.42107 11698 ft 347 kts 225°
2026-05-08 15:26 5.29412 100.40521 10908 ft 352 kts 218°
2026-05-08 15:26 5.27535 100.39001 10594 ft 345 kts 218°
2026-05-08 15:27 5.25702 100.37479 10302 ft 337 kts 219°
2026-05-08 15:27 5.23937 100.35995 10184 ft 325 kts 219°
2026-05-08 15:27 5.22808 100.35042 10107 ft 317 kts 219°
2026-05-08 15:27 5.20628 100.33200 9904 ft 302 kts 219°
2026-05-08 15:28 5.19036 100.31860 9231 ft 297 kts 219°
2026-05-08 15:28 5.17465 100.30544 8668 ft 292 kts 219°
2026-05-08 15:28 5.15908 100.29239 8172 ft 290 kts 219°
2026-05-08 15:28 5.14365 100.27946 7688 ft 288 kts 219°
2026-05-08 15:29 5.12835 100.26662 7210 ft 288 kts 219°
2026-05-08 15:29 5.11818 100.25808 6889 ft 287 kts 219°
2026-05-08 15:29 5.10297 100.24529 6420 ft 284 kts 219°
2026-05-08 15:29 5.08372 100.22780 5758 ft 280 kts 233°
2026-05-08 15:30 5.07540 100.21051 5300 ft 276 kts 258°
2026-05-08 15:30 5.07510 100.19141 4842 ft 277 kts 282°
2026-05-08 15:30 5.08268 100.17388 4257 ft 275 kts 308°
2026-05-08 15:30 5.09663 100.16158 3952 ft 260 kts 332°
2026-05-08 15:31 5.10695 100.15616 3926 ft 246 kts 333°
2026-05-08 15:31 5.12155 100.14853 3825 ft 229 kts 334°
2026-05-08 15:31 5.13608 100.14434 3709 ft 207 kts 357°
2026-05-08 15:31 5.14931 100.14633 3588 ft 180 kts 20°
2026-05-08 15:32 5.16213 100.15484 3186 ft 160 kts 41°
2026-05-08 15:32 5.17038 100.16215 2951 ft 157 kts 42°
2026-05-08 15:32 5.17588 100.16708 2807 ft 157 kts 43°
2026-05-08 15:32 5.18397 100.17437 2604 ft 156 kts 43°
2026-05-08 15:33 5.19194 100.18157 2405 ft 156 kts 43°
2026-05-08 15:33 5.19999 100.18885 2205 ft 156 kts 43°
2026-05-08 15:33 5.20802 100.19612 2003 ft 155 kts 43°
2026-05-08 15:33 5.21602 100.20337 1805 ft 155 kts 44°
2026-05-08 15:34 5.22399 100.21058 1617 ft 154 kts 44°
2026-05-08 15:34 5.23194 100.21777 1407 ft 154 kts 44°
2026-05-08 15:34 5.23987 100.22496 1215 ft 154 kts 44°
2026-05-08 15:34 5.24779 100.23213 1011 ft 153 kts 44°
2026-05-08 15:35 5.25567 100.23926 825 ft 152 kts 43°
2026-05-08 15:35 5.26351 100.24635 652 ft 152 kts 43°
2026-05-08 15:35 5.27125 100.25331 462 ft 150 kts 44°
2026-05-08 15:35 5.27898 100.26036 261 ft 150 kts 43°
2026-05-08 15:36 5.28668 100.26737 57 ft 150 kts 43°
2026-05-08 15:36 5.29379 100.27437 90 ft 143 kts 49°
2026-05-08 15:36 5.30078 100.28130 797 ft 141 kts 46°
2026-05-08 15:36 5.30784 100.28837 1430 ft 145 kts 46°
2026-05-08 15:37 5.31524 100.29551 1825 ft 153 kts 45°
2026-05-08 15:37 5.32110 100.30481 1962 ft 167 kts 79°
2026-05-08 15:37 5.32000 100.31649 2080 ft 176 kts 114°
2026-05-08 15:37 5.31113 100.32556 2190 ft 195 kts 150°
2026-05-08 15:38 5.29872 100.33257 2332 ft 214 kts 150°
2026-05-08 15:38 5.28553 100.34050 2473 ft 233 kts 149°
2026-05-08 15:38 5.27145 100.34912 3040 ft 239 kts 148°
2026-05-08 15:38 5.25723 100.35786 3724 ft 241 kts 148°
2026-05-08 15:39 5.24241 100.36605 4169 ft 246 kts 162°
2026-05-08 15:39 5.22558 100.36749 4283 ft 245 kts 192°
2026-05-08 15:39 5.21023 100.36047 4307 ft 245 kts 215°
2026-05-08 15:39 5.19671 100.35005 4307 ft 245 kts 219°
2026-05-08 15:40 5.18348 100.33920 4308 ft 246 kts 219°
2026-05-08 15:40 5.17050 100.32844 4308 ft 246 kts 219°
2026-05-08 15:40 5.15736 100.31751 4309 ft 246 kts 219°
2026-05-08 15:40 5.14420 100.30656 4307 ft 246 kts 219°
2026-05-08 15:41 5.13105 100.29560 4306 ft 246 kts 219°
2026-05-08 15:41 5.11791 100.28466 4304 ft 246 kts 219°
2026-05-08 15:41 5.10479 100.27372 4306 ft 245 kts 219°
2026-05-08 15:41 5.09166 100.26279 4308 ft 245 kts 219°
2026-05-08 15:42 5.08022 100.25035 4074 ft 242 kts 243°
2026-05-08 15:42 5.07600 100.23448 3764 ft 239 kts 265°
2026-05-08 15:42 5.07533 100.21781 3336 ft 240 kts 269°
2026-05-08 15:42 5.07513 100.20111 3040 ft 238 kts 269°
2026-05-08 15:43 5.07527 100.18442 3013 ft 241 kts 276°
2026-05-08 15:43 5.08120 100.16904 3012 ft 235 kts 308°
2026-05-08 15:43 5.09319 100.15883 3029 ft 222 kts 327°
2026-05-08 15:43 5.10618 100.15079 3039 ft 216 kts 331°
2026-05-08 15:44 5.12026 100.14710 2689 ft 209 kts
2026-05-08 15:44 5.13369 100.14854 2589 ft 177 kts
2026-05-08 15:44 5.14496 100.15018 2348 ft 158 kts
2026-05-08 15:44 5.15579 100.15189 2040 ft 153 kts 15°
2026-05-08 15:45 5.16481 100.15697 2036 ft 152 kts 44°
2026-05-08 15:45 5.17271 100.16413 2037 ft 153 kts 44°
2026-05-08 15:45 5.18063 100.17131 2032 ft 154 kts 43°
2026-05-08 15:45 5.18857 100.17851 2032 ft 154 kts 44°
2026-05-08 15:46 5.19652 100.18570 2029 ft 154 kts 43°
2026-05-08 15:46 5.20449 100.19292 2007 ft 155 kts 43°
2026-05-08 15:46 5.21248 100.20015 1877 ft 154 kts 43°
2026-05-08 15:46 5.22043 100.20735 1705 ft 154 kts 43°
2026-05-08 15:47 5.22833 100.21451 1509 ft 153 kts 44°
2026-05-08 15:47 5.23613 100.22157 1324 ft 152 kts 44°
2026-05-08 15:47 5.24400 100.22870 1129 ft 152 kts 44°
2026-05-08 15:47 5.25185 100.23581 943 ft 151 kts 43°
2026-05-08 15:48 5.26728 100.24979 558 ft 148 kts 43°
2026-05-08 15:48 5.27490 100.25666 356 ft 147 kts 43°
2026-05-08 15:48 5.28240 100.26349 132 ft 145 kts 43°
2026-05-08 15:49 5.28979 100.27023 31 ft 135 kts 42°
2026-05-08 15:49 5.29548 100.27534 23 ft 87 kts 42°
2026-05-08 15:49 5.29871 100.27827 28 ft 44 kts 42°
2026-05-08 15:49 5.30076 100.28016 25 ft 30 kts 44°
2026-05-08 15:50 5.30201 100.28121 24 ft 23 kts 45°
2026-05-08 15:50 5.30318 100.28232 24 ft 23 kts 42°
2026-05-08 15:50 5.30439 100.28343 23 ft 27 kts 42°
2026-05-08 15:50 5.30584 100.28475 26 ft 28 kts 42°
2026-05-08 15:51 5.30725 100.28603 25 ft 27 kts 42°
2026-05-08 15:51 5.30840 100.28666 27 ft 17 kts 346°
2026-05-08 15:51 5.30906 100.28576 23 ft 17 kts 274°
2026-05-08 15:51 5.30841 100.28480 23 ft 18 kts 221°
2026-05-08 15:52 5.30750 100.28396 23 ft 18 kts 223°
2026-05-08 15:52 5.30655 100.28309 24 ft 19 kts 223°
2026-05-08 15:52 5.30556 100.28218 22 ft 19 kts 222°
2026-05-08 15:52 5.30454 100.28127 24 ft 20 kts 222°
2026-05-08 15:53 5.30353 100.28031 23 ft 20 kts 224°
2026-05-08 15:53 5.30257 100.27933 23 ft 20 kts 225°
2026-05-08 15:53 5.30160 100.27838 23 ft 20 kts 224°
2026-05-08 15:53 5.30063 100.27742 23 ft 20 kts 223°
2026-05-08 15:54 5.29962 100.27649 23 ft 20 kts 222°
2026-05-08 15:54 5.29862 100.27556 23 ft 20 kts 223°
2026-05-08 15:54 5.29759 100.27464 23 ft 20 kts 222°
2026-05-08 15:54 5.29657 100.27371 23 ft 20 kts 222°
2026-05-08 15:55 5.29555 100.27277 23 ft 20 kts 222°
2026-05-08 15:55 5.29379 100.27120 23 ft 12 kts 221°
2026-05-08 15:55 5.29333 100.27062 23 ft 9 kts 263°
2026-05-08 15:56 5.29370 100.27007 23 ft 10 kts 311°
2026-05-08 15:56 5.29408 100.26947 23 ft 10 kts 276°
2026-05-08 15:56 5.29369 100.26890 23 ft 9 kts 220°
2026-05-08 15:56 5.29324 100.26849 24 ft 9 kts 222°
2026-05-08 15:57 5.29272 100.26803 23 ft 10 kts 221°
2026-05-08 15:57 5.29230 100.26766 23 ft 8 kts 221°
2026-05-08 15:57 5.29201 100.26732 23 ft 5 kts 259°
2026-05-08 15:57 5.29219 100.26705 24 ft 5 kts 316°
2026-05-08 15:58 5.29238 100.26685 23 ft 3 kts 312°
2026-05-08 15:58 5.29245 100.26677 23 ft 1 kts 312°
2026-05-08 15:58 5.29246 100.26676 23 ft 0 kts 312°